TimeCST,TemperatureF,Dew PointF,Humidity,Sea Level PressureIn,VisibilityMPH,Wind Direction,Wind SpeedMPH,Gust SpeedMPH,PrecipitationIn,Events,Conditions,WindDirDegrees,DateUTC
12:53 AM,48.9,39.9,71,30.24,10.0,NNW,3.5,-,N/A,,Clear,330,2012-11-24 06:53:00
1:53 AM,48.0,39.0,71,30.25,10.0,North,6.9,-,N/A,,Clear,350,2012-11-24 07:53:00
2:53 AM,46.9,36.0,66,30.26,10.0,NNE,9.2,17.3,N/A,,Clear,20,2012-11-24 08:53:00
3:53 AM,45.0,35.1,68,30.26,10.0,North,9.2,-,N/A,,Clear,360,2012-11-24 09:53:00
4:53 AM,43.0,34.0,71,30.28,10.0,North,4.6,-,N/A,,Clear,360,2012-11-24 10:53:00
5:53 AM,41.0,33.1,73,30.30,10.0,North,6.9,-,N/A,,Clear,350,2012-11-24 11:53:00
6:53 AM,39.9,32.0,73,30.32,10.0,North,6.9,-,N/A,,Clear,360,2012-11-24 12:53:00
7:53 AM,41.0,33.1,73,30.32,10.0,North,8.1,-,N/A,,Clear,10,2012-11-24 13:53:00
8:53 AM,44.1,30.9,60,30.34,10.0,NNE,8.1,-,N/A,,Clear,20,2012-11-24 14:53:00
9:53 AM,46.0,30.0,54,30.33,10.0,NNE,8.1,-,N/A,,Clear,20,2012-11-24 15:53:00
10:53 AM,48.9,30.0,48,30.32,10.0,North,6.9,-,N/A,,Clear,10,2012-11-24 16:53:00
11:53 AM,52.0,28.9,41,30.29,10.0,North,8.1,-,N/A,,Clear,10,2012-11-24 17:53:00
12:53 PM,55.0,28.9,37,30.25,10.0,NNW,11.5,-,N/A,,Clear,340,2012-11-24 18:53:00
1:53 PM,55.9,28.0,34,30.23,10.0,North,5.8,-,N/A,,Clear,350,2012-11-24 19:53:00
2:53 PM,57.0,28.0,33,30.21,10.0,North,6.9,-,N/A,,Clear,350,2012-11-24 20:53:00
3:53 PM,55.9,27.0,33,30.21,10.0,NNW,6.9,-,N/A,,Clear,340,2012-11-24 21:53:00
4:53 PM,51.1,33.1,50,30.21,10.0,Calm,Calm,-,N/A,,Clear,0,2012-11-24 22:53:00
5:53 PM,44.1,34.0,68,30.22,10.0,Calm,Calm,-,N/A,,Clear,0,2012-11-24 23:53:00
6:53 PM,41.0,34.0,76,30.22,10.0,Calm,Calm,-,N/A,,Clear,0,2012-11-25 00:53:00
7:53 PM,37.9,33.1,83,30.22,10.0,Calm,Calm,-,N/A,,Clear,0,2012-11-25 01:53:00
8:53 PM,37.0,33.1,86,30.22,10.0,Calm,Calm,-,N/A,,Clear,0,2012-11-25 02:53:00
9:53 PM,35.1,30.9,85,30.21,10.0,Calm,Calm,-,N/A,,Clear,0,2012-11-25 03:53:00
10:53 PM,34.0,30.9,89,30.20,10.0,NNW,3.5,-,N/A,,Clear,330,2012-11-25 04:53:00
11:53 PM,32.0,30.9,96,30.19,10.0,Calm,Calm,-,N/A,,Clear,0,2012-11-25 05:53:00